STARLINK-33803, 63517

Orbit data source: Space-Track

STARLINK-33803, 63517 is a payload satellite owned by SpaceX/Seattle (US) in LEO that was launched on Mon, 07 Apr 2025 UTC via an FALCON 9 launch vehicle from the Air Force Western Test Range (AFWTR). Payload-class satellites include a variety of spacecraft equipped with specific instruments for various scientific and technological missions. These include communications satellites like Starlink; space stations such as the ISS; scientific satellites like the Hubble; Earth observation satellites from companies like Planet Labs, Umbra, and HawkEye 360; GPS; miniature CubeSats for education and research; and military/defense satellites.

Loading next visibility...
Identifier
63517, 2025-071AA
Orbit
LEO
Country
Flag of USUS
Related business
Manufacturer
SpaceX/Seattle
Mission
Operational Commercial Communications
Bus & Motor
STARLINK V2MO, Unknown motor
Mass
575 kg wet, ~530 kg dry
Launch date (UTC)
2025-04-07 (1 year ago)
Launch vehicle
FALCON 9
Launch site
Air Force Western Test Range (AFWTR)
Object type
Payload
Rocket body
Debris
Shape & HBR
Box + 1 Pan, 17.7 m
Radar Cross Section
41.120 m², Large (>1 m²)

Expand to show TLE details & history
Last TLE update: 18 hours ago

TLE from 18 hours ago
0 STARLINK-33803
1 63517U 25071AA  26262.68315156  .00018224  00000-0  54917-3 0  9996
2 63517  53.1597 317.2063 0000895  77.6002 282.5100 15.34400564 82493
Epoch: 2026-09-19T16:23Z
TLE epoch observation values (Epoch: 2026-09-19T16:23:44.294Z)
Latitude
-0.00009°
Longitude
72.6835°
Altitude
463.47 km
Speed
7.636 km/s
True Right ascension
21h 08m 49s
True Declination
0° 00' 00"
Sunlit
Object was in full shadow at epoch
Visualization orbit readout
Latitude
Unknown
Longitude
Unknown
Altitude
Unknown
Speed
Unknown
Apparent Right ascension
Unknown
Apparent Declination
Unknown
Sunlit
N/A
Visualization observer readout
Local Sidereal Time
03:42:36
Azimuth
Unknown
Elevation
Unknown
Doppler factor
Unknown
Orbital elements
Apogee altitude
463.571 km
Perigee altitude
462.346 km
Semi-major axis
6,841.095 km
Eccentricity
0.00009
Inclination
53.1597°
RAAN
317.2063°
Arg. of periapsis
77.6002°
True anomaly
282.49999°
Mean anomaly
282.51°
Eccentric anomaly
282.50499°
Mean motion
3.83579 °/min
Orbital period
93.85 mins
BSTAR
0.00054917
Loading maneuver chart data...
Computing Atmospheric mass density...
Loading historical data...
Loading historical data...
Loading historical data...
Loading historical data...
Loading historical data...
Loading historical data...
Loading historical data...

Documentation

Showing up to 5 results
|